Regional Weather Roundup
Issued by NWS Sioux Falls, SD

Home | Current Version | Previous Version | Text Only | Print | Product List | Glossary Off
Versions: 1 2 3 4 5 6 7 8 9 10 11 12 13 14 15 16 17 18 19 20 21 22 23 24 25 26 27 28 29 30 31 32 33 34 35 36 37 38 39 40 41 42 43 44 45 46 47 48 49 50

837
ASUS43 KFSD 260210
RWRFSD

WEATHER ROUNDUP FOR SE SOUTH DAKOTA/SW MINNESOTA/NW IOWA
NATIONAL WEATHER SERVICE SIOUX FALLS SD
900 PM CDT WED MAY 25 2016

NOTE: "FAIR" INDICATES FEW OR NO CLOUDS BELOW 12,000 FEET WITH NO
SIGNIFICANT WEATHER AND OR OBSTRUCTIONS TO VISIBILITY.


SDZ038>040-050-052>070-260300-
SOUTHEAST SOUTH DAKOTA

CITY           SKY/WX    TMP DP  RH WIND       PRES   REMARKS
BROOKINGS      CLOUDY    70  60  70 W5        29.82R
CHAMBERLAIN    CLOUDY    64  57  76 SE3       29.81R
HURON          CLOUDY    60  57  89 S13       29.78F
MADISON        FAIR      68  64  88 W5        29.84R
MITCHELL       CLOUDY    73  63  70 VRB3      29.79S
SIOUX FALLS    CLOUDY    68  60  75 NW6       29.80R
WINNER         FAIR      64  56  75 W5        29.82R
YANKTON        CLOUDY    73  61  64 N8        29.75F
$$

MNZ071-072-080-081-089-090-097-098-260300-
SOUTHWEST MINNESOTA

CITY           SKY/WX    TMP DP  RH WIND       PRES   REMARKS
FAIRMONT       CLEAR     73  52  46 S3        29.80S
JACKSON        CLEAR     73  55  53 SE3       29.81S
LUVERNE        CLEAR     70  59  68 W3        29.80R
MARSHALL       CLEAR     73  60  63 W6        29.79R
MONTEVIDEO     PTCLDY    75  55  50 NW3       29.79R
PIPESTONE      CLOUDY    70  63  78 W3        29.81R VSB 1
REDWOOD FALLS  CLEAR     73  60  63 SW6       29.77S
TRACY          CLEAR     73  62  68 CALM      29.79R
WINDOM         CLEAR     73  61  64 CALM      29.80R
WORTHINGTON    CLEAR     73  62  68 CALM      29.81R
$$

IAZ001>003-012>014-020>022-031-032-NEZ013-014-SDZ071-260300-
NORTHWEST IOWA

CITY           SKY/WX    TMP DP  RH WIND       PRES   REMARKS
CHEROKEE       CLEAR     72  64  75 S6        29.80S
DENISON        MOCLDY    72  66  83 S6        29.81S
ESTHERVILLE    PTCLDY    72  58  61 S5        29.80F
LE MARS        PTCLDY    77  64  65 S8G15     29.79S
ORANGE CITY    CLEAR     73  61  64 CALM      29.80R
SHELDON        CLEAR     73  61  64 CALM      29.79R
SIOUX CITY     CLOUDY    76  64  66 S12       29.78S
SPENCER        MOCLDY    73  61  65 S5        29.80S
STORM LAKE     MOCLDY    73  61  64 S12       29.82S
$$

ABBREVIATIONS USED IN REMARKS
   TC - TEMPERATURE IN CELSIUS
  WCI - WIND CHILL INDEX
   HX - HEAT INDEX
  VSB - VISIBILITY





USA.gov is the U.S. government's official web portal to all federal, state and local government web resources and services.